Flag Weather past 2 weeks in Brownsville, Texas, U.S.A.

Now
76 °F

Rain. Overcast.


Feels Like: 76 °F
Forecast: 62 / 85 °F
Wind: 9 mph from Southwest

Location: Brownsville / South Padre Island International Airport

Current Time: Nov 23, 2014 at 12:06:25 AM

Latest Report: Nov 22, 2014 at 10:53 PM


Visibility: 6 mi

Pressure: 29.78 "Hg

Humidity: 85%

Dew point: 71 °F

Location of BrownsvilleLocation

Historic Weather in Brownsville — Graph

°F

Brownsville temperature yesterday

Maximum temperature yesterday: 81 °F (at 1:53 PM)
Minimum temperature yesterday: 71 °F (at 7:53 AM)
Average temperature yesterday: 75 °F

Past Weeks' High & Low Weather Summary

 TemperatureHumidityPressure
High83 °F (Nov 11, 10:53 AM)100% (Nov 15, 6:53 AM)30.46 "Hg (Nov 15, 6:53 AM)
Low39 °F (Nov 13, 6:53 AM)35% (Nov 17, 3:53 PM)29.72 "Hg (Nov 22, 6:53 PM)
Average61 °F79%30.12 "Hg
* Reported Nov 7 10:04 PM — Nov 22 10:53 PM, Brownsville, Weather by CustomWeather, © 2014

Note: Actual official high and low records may vary slightly from our data, if they occured in-between our weather recording intervals... More about our weather records

Advertising

Brownsville weather history for previous 24 hours

 ConditionsComfort  
Time TempWeatherWind HumidityBarometerVisibility
10:53 PM
Nov 22
76 °FRain. Overcast.9 mph85%29.78 "Hg6 mi
9:53 PM74 °FOvercast.10 mph88%29.78 "Hg7 mi
8:53 PM75 °FFog.15 mph90%29.75 "Hg6 mi
7:53 PM75 °FMostly cloudy.15 mph88%29.72 "Hg7 mi
6:53 PM74 °FOvercast.13 mph91%29.72 "Hg7 mi
5:53 PM74 °FClear.13 mph88%29.74 "Hg8 mi
4:53 PM77 °FSunny.16 mph77%29.75 "Hg10 mi
3:53 PM79 °FPassing clouds.18 mph72%29.77 "Hg10 mi
2:53 PM78 °FPartly sunny.25 mph74%29.79 "Hg10 mi
1:53 PM81 °FBroken clouds.25 mph65%29.82 "Hg10 mi
1:02 PM80 °FPartly sunny.21 mph69%29.86 "Hg10 mi
11:53 AM80 °FPartly sunny.29 mph74%29.89 "Hg10 mi
10:53 AM77 °FPartly sunny.20 mph88%29.93 "Hg8 mi
10:04 AM76 °FScattered clouds.17 mph88%29.95 "Hg9 mi
9:01 AM74 °FThundershowers. Sunny.17 mph88%29.92 "Hg10 mi
7:53 AM71 °FLight rain. Broken clouds.21 mph87%29.89 "Hg9 mi
6:53 AM72 °FOvercast.9 mph93%29.96 "Hg8 mi
5:53 AM73 °FOvercast.13 mph90%29.95 "Hg8 mi
4:53 AM72 °FMostly cloudy.13 mph93%29.95 "Hg7 mi
3:53 AM72 °FMostly cloudy.12 mph93%29.97 "Hg8 mi
2:53 AM73 °FOvercast.8 mph90%29.99 "Hg8 mi
1:53 AM72 °FPassing clouds.14 mph91%29.98 "Hg7 mi
12:53 AM72 °FOvercast.10 mph91%30.00 "Hg8 mi
Weather by CustomWeather, © 2014

See weather overviewHow to use our weather pages